Location: Pensacola
(30.4142°N, 87.2155°W)
Time: 00:45:17
(UTC-05:00)

PE2_FLT2 (TYVAK-0262) - Visible Passes

Search period start: 16 July 2025 00:00
Search period end: 26 July 2025 00:00
Orbit: 578 x 590 km, 97.8° (Epoch: 15 July)

Date Brightness Start Highest point End Pass type
(mag) Time Alt. Az. Time Alt. Az. Time Alt. Az.
16 Jul ? 02:42:46 14° NNW 02:42:46 14° NNW 02:43:24 10° NNW visible
17 Jul ? 02:49:13 13° NNW 02:49:13 13° NNW 02:49:40 10° NNW visible
18 Jul ? 02:55:40 11° NNW 02:55:40 11° NNW 02:55:53 10° NNW visible
21 Jul ? 01:38:33 11° NNE 01:38:33 11° NNE 01:38:43 10° NNE visible
22 Jul ? 01:45:00 11° NNE 01:45:00 11° NNE 01:45:17 10° NNE visible
23 Jul ? 01:51:25 12° NNE 01:51:25 12° NNE 01:51:47 10° NNE visible
24 Jul ? 01:57:52 12° NNE 01:57:52 12° NNE 01:58:14 10° N visible
25 Jul ? 02:04:17 12° N 02:04:17 12° N 02:04:39 10° N visible
